IBB356 GCRR-GCGM

Flight info

Callsign IBB356
Flight time N/A
Altitude 16000
Route LARY1M LARYS TFN TESEL YEQAY
Aircraft AT75/M-SDE2E3FGHIRWXY/LB1

Departure

Time 2026-05-05 18:00
Airport César Manrique-Lanzarote Airport (GCRR)

Arrival

Time N/A
Airport La Gomera Airport (GCGM)
Time Latitude Longitude Altitude Speed Heading
2026-05-05 17:48 28.95231 -13.60568 53 ft 0 kts 296°
2026-05-05 17:53 28.95231 -13.60569 53 ft 0 kts 296°
2026-05-05 17:55 28.95235 -13.60574 53 ft 3 kts 310°
2026-05-05 17:55 28.95248 -13.60566 53 ft 3 kts 95°
2026-05-05 17:55 28.95209 -13.60551 53 ft 9 kts 178°
2026-05-05 17:56 28.95184 -13.60550 53 ft 9 kts 168°
2026-05-05 17:56 28.95144 -13.60486 53 ft 13 kts 106°
2026-05-05 17:56 28.95084 -13.60440 53 ft 13 kts 202°
2026-05-05 17:56 28.94989 -13.60490 53 ft 17 kts 210°
2026-05-05 17:57 28.94869 -13.60560 53 ft 24 kts 206°
2026-05-05 17:57 28.94692 -13.60659 53 ft 33 kts 210°
2026-05-05 17:57 28.94475 -13.60793 53 ft 38 kts 201°
2026-05-05 17:57 28.94243 -13.60920 53 ft 37 kts 205°
2026-05-05 17:58 28.94008 -13.61057 53 ft 39 kts 205°
2026-05-05 17:58 28.93777 -13.61189 53 ft 30 kts 208°
2026-05-05 17:58 28.93694 -13.61236 53 ft 3 kts 198°
2026-05-05 17:58 28.93673 -13.61234 53 ft 4 kts 140°
2026-05-05 17:59 28.93643 -13.61173 53 ft 12 kts 114°
2026-05-05 17:59 28.93609 -13.61071 53 ft 13 kts 97°
2026-05-05 17:59 28.93612 -13.61056 53 ft 2 kts 46°
2026-05-05 17:59 28.93619 -13.61051 53 ft 0 kts 33°
2026-05-05 18:00 28.93775 -13.60964 54 ft 63 kts 29°
2026-05-05 18:00 28.94345 -13.60638 180 ft 104 kts 30°
2026-05-05 18:00 28.94988 -13.60183 589 ft 123 kts 37°
2026-05-05 18:00 28.95769 -13.59574 1004 ft 136 kts 36°
2026-05-05 18:01 28.96306 -13.59169 1253 ft 142 kts 38°
2026-05-05 18:01 28.97155 -13.58522 1589 ft 151 kts 38°
2026-05-05 18:01 28.98338 -13.57609 2140 ft 155 kts 39°
2026-05-05 18:01 28.99228 -13.56901 2588 ft 157 kts 40°
2026-05-05 18:02 28.99821 -13.56408 2885 ft 157 kts 40°
2026-05-05 18:02 29.00625 -13.55560 3331 ft 159 kts 49°
2026-05-05 18:02 29.01357 -13.54617 3808 ft 158 kts 50°
2026-05-05 18:02 29.02191 -13.53794 4169 ft 162 kts 28°
2026-05-05 18:03 29.03278 -13.53755 4613 ft 161 kts 348°
2026-05-05 18:03 29.04137 -13.54575 4998 ft 167 kts 309°
2026-05-05 18:03 29.04318 -13.55879 5532 ft 166 kts 272°
2026-05-05 18:03 29.04143 -13.57173 5991 ft 170 kts 265°
2026-05-05 18:04 29.03938 -13.58482 6609 ft 161 kts 263°
2026-05-05 18:04 29.03741 -13.59759 6985 ft 165 kts 263°
2026-05-05 18:04 29.03538 -13.61050 7395 ft 166 kts 263°
2026-05-05 18:04 29.03334 -13.62340 7794 ft 167 kts 263°
2026-05-05 18:05 29.03123 -13.63671 8193 ft 168 kts 263°
2026-05-05 18:05 29.02915 -13.64984 8595 ft 169 kts 263°
2026-05-05 18:05 29.02708 -13.66309 8984 ft 170 kts 263°
2026-05-05 18:05 29.02502 -13.67639 9376 ft 171 kts 263°
2026-05-05 18:06 29.02299 -13.68984 9769 ft 171 kts 263°
2026-05-05 18:06 29.02163 -13.69889 10023 ft 172 kts 264°
2026-05-05 18:06 29.01895 -13.71694 10512 ft 174 kts 263°
2026-05-05 18:06 29.01693 -13.73055 10856 ft 176 kts 263°
2026-05-05 18:07 29.01487 -13.74453 11215 ft 177 kts 264°
2026-05-05 18:07 29.01284 -13.75828 11556 ft 176 kts 263°
2026-05-05 18:07 29.01086 -13.77193 11886 ft 177 kts 264°
2026-05-05 18:07 29.00887 -13.78594 12183 ft 180 kts 264°
2026-05-05 18:08 29.00683 -13.80024 12532 ft 181 kts 264°
2026-05-05 18:08 29.00481 -13.81445 12908 ft 181 kts 264°
2026-05-05 18:08 29.00279 -13.82858 13257 ft 183 kts 264°
2026-05-05 18:08 29.00073 -13.84307 13615 ft 183 kts 264°
2026-05-05 18:09 28.99868 -13.85739 13971 ft 184 kts 264°
2026-05-05 18:09 28.99661 -13.87179 14318 ft 184 kts 264°
2026-05-05 18:09 28.99451 -13.88633 14672 ft 184 kts 264°
2026-05-05 18:09 28.99242 -13.90078 15007 ft 185 kts 264°
2026-05-05 18:10 28.99030 -13.91542 15335 ft 186 kts 264°
2026-05-05 18:10 28.98819 -13.92994 15669 ft 187 kts 264°
2026-05-05 18:10 28.98606 -13.94466 15892 ft 193 kts 264°
2026-05-05 18:10 28.98386 -13.96019 15980 ft 204 kts 264°
2026-05-05 18:11 28.98157 -13.97659 16002 ft 215 kts 264°
2026-05-05 18:11 28.97918 -13.99402 16005 ft 225 kts 264°
2026-05-05 18:11 28.97677 -14.01178 16005 ft 231 kts 264°
2026-05-05 18:11 28.97430 -14.03011 16003 ft 236 kts 264°
2026-05-05 18:12 28.97180 -14.04878 16002 ft 239 kts 264°
2026-05-05 18:12 28.96926 -14.06785 16002 ft 241 kts 264°
2026-05-05 18:12 28.96673 -14.08681 16001 ft 243 kts 264°
2026-05-05 18:12 28.96420 -14.10587 16001 ft 244 kts 264°
2026-05-05 18:13 28.96164 -14.12508 16001 ft 245 kts 264°
2026-05-05 18:13 28.95910 -14.14408 16001 ft 245 kts 264°
2026-05-05 18:13 28.95652 -14.16347 16001 ft 245 kts 264°
2026-05-05 18:13 28.95396 -14.18264 16001 ft 246 kts 264°
2026-05-05 18:14 28.95138 -14.20190 16000 ft 246 kts 264°
2026-05-05 18:14 28.94878 -14.22137 16000 ft 246 kts 264°
2026-05-05 18:14 28.94622 -14.24049 16000 ft 246 kts 264°
2026-05-05 18:14 28.94360 -14.26007 16000 ft 246 kts 264°
2026-05-05 18:15 28.94103 -14.27925 16000 ft 246 kts 264°
2026-05-05 18:15 28.93845 -14.29854 16000 ft 246 kts 264°
2026-05-05 18:15 28.93587 -14.31775 16000 ft 246 kts 264°
2026-05-05 18:15 28.93325 -14.33724 16000 ft 246 kts 264°
2026-05-05 18:16 28.93068 -14.35633 16000 ft 246 kts 264°
2026-05-05 18:16 28.92805 -14.37587 16000 ft 246 kts 264°
2026-05-05 18:16 28.92546 -14.39513 16000 ft 246 kts 264°
2026-05-05 18:16 28.92286 -14.41440 16000 ft 246 kts 264°
2026-05-05 18:17 28.92024 -14.43378 16000 ft 246 kts 264°
2026-05-05 18:17 28.91764 -14.45304 16000 ft 246 kts 264°
2026-05-05 18:17 28.91505 -14.47222 16000 ft 246 kts 264°
2026-05-05 18:17 28.91244 -14.49152 16001 ft 246 kts 264°
2026-05-05 18:18 28.91005 -14.51084 16000 ft 246 kts 265°
2026-05-05 18:18 28.90757 -14.53014 16000 ft 246 kts 264°
2026-05-05 18:18 28.90499 -14.54941 16000 ft 246 kts 264°
2026-05-05 18:18 28.90236 -14.56894 16001 ft 246 kts 264°
2026-05-05 18:19 28.89992 -14.58821 16000 ft 246 kts 265°
2026-05-05 18:19 28.89757 -14.60758 16000 ft 247 kts 265°
2026-05-05 18:19 28.89525 -14.62696 16001 ft 248 kts 265°
2026-05-05 18:19 28.89294 -14.64640 16001 ft 248 kts 265°
2026-05-05 18:20 28.89060 -14.66611 16001 ft 249 kts 265°
2026-05-05 18:20 28.88831 -14.68543 16001 ft 249 kts 265°
2026-05-05 18:20 28.88597 -14.70513 16000 ft 249 kts 265°
2026-05-05 18:20 28.88363 -14.72482 16000 ft 249 kts 265°
2026-05-05 18:21 28.88132 -14.74423 16000 ft 249 kts 265°
2026-05-05 18:21 28.87899 -14.76386 16000 ft 250 kts 265°
2026-05-05 18:21 28.87668 -14.78349 16001 ft 250 kts 265°
2026-05-05 18:21 28.87453 -14.80320 16000 ft 250 kts 266°
2026-05-05 18:22 28.87254 -14.82281 16001 ft 250 kts 266°
2026-05-05 18:22 28.87005 -14.84263 15999 ft 250 kts 262°
2026-05-05 18:22 28.86613 -14.86188 16003 ft 250 kts 259°
2026-05-05 18:22 28.86159 -14.88103 16002 ft 250 kts 258°
2026-05-05 18:23 28.85683 -14.90005 16001 ft 250 kts 258°
2026-05-05 18:23 28.85214 -14.91909 16001 ft 250 kts 258°
2026-05-05 18:23 28.84756 -14.93831 16001 ft 250 kts 258°
2026-05-05 18:23 28.84313 -14.95756 16000 ft 250 kts 259°
2026-05-05 18:24 28.83875 -14.97680 16000 ft 250 kts 259°
2026-05-05 18:24 28.83438 -14.99607 16000 ft 250 kts 259°
2026-05-05 18:24 28.83004 -15.01523 16000 ft 250 kts 259°
2026-05-05 18:24 28.82564 -15.03442 16001 ft 250 kts 259°
2026-05-05 18:25 28.82123 -15.05365 16001 ft 250 kts 259°
2026-05-05 18:25 28.81833 -15.06632 16001 ft 250 kts 259°
2026-05-05 18:25 28.81240 -15.09211 16001 ft 250 kts 259°
2026-05-05 18:25 28.80802 -15.11125 16000 ft 250 kts 259°
2026-05-05 18:26 28.80359 -15.13036 16001 ft 250 kts 259°
2026-05-05 18:26 28.79914 -15.14980 16000 ft 250 kts 259°
2026-05-05 18:26 28.79476 -15.16885 16001 ft 250 kts 259°
2026-05-05 18:26 28.79034 -15.18809 16000 ft 250 kts 259°
2026-05-05 18:27 28.78595 -15.20707 16001 ft 250 kts 259°
2026-05-05 18:27 28.78151 -15.22639 16000 ft 250 kts 258°
2026-05-05 18:27 28.77705 -15.24562 16001 ft 250 kts 259°
2026-05-05 18:27 28.77265 -15.26473 16000 ft 250 kts 258°
2026-05-05 18:28 28.76377 -15.30310 16000 ft 250 kts 258°
2026-05-05 18:28 28.75929 -15.32232 16001 ft 250 kts 259°
2026-05-05 18:28 28.75490 -15.34141 16000 ft 250 kts 259°
2026-05-05 18:29 28.75034 -15.36105 16001 ft 250 kts 258°
2026-05-05 18:29 28.74595 -15.38004 16000 ft 250 kts 259°
2026-05-05 18:29 28.74146 -15.39930 16001 ft 250 kts 258°
2026-05-05 18:29 28.73700 -15.41858 16000 ft 250 kts 259°
2026-05-05 18:30 28.73256 -15.43756 16001 ft 250 kts 258°
2026-05-05 18:30 28.72805 -15.45705 16000 ft 250 kts 259°
2026-05-05 18:30 28.72363 -15.47599 16001 ft 250 kts 258°
2026-05-05 18:30 28.71909 -15.49544 16001 ft 250 kts 258°
2026-05-05 18:31 28.71472 -15.51435 16000 ft 251 kts 258°
2026-05-05 18:31 28.71019 -15.53350 16001 ft 250 kts 258°
2026-05-05 18:31 28.70571 -15.55279 16000 ft 250 kts 258°
2026-05-05 18:31 28.70125 -15.57205 16000 ft 251 kts 258°
2026-05-05 18:32 28.69678 -15.59096 16001 ft 250 kts 258°
2026-05-05 18:32 28.69224 -15.61046 16000 ft 250 kts 258°
2026-05-05 18:32 28.68781 -15.62947 16000 ft 251 kts 258°
2026-05-05 18:32 28.68325 -15.64870 16001 ft 251 kts 258°
2026-05-05 18:33 28.67878 -15.66784 16000 ft 251 kts 258°
2026-05-05 18:33 28.67436 -15.68689 16000 ft 251 kts 258°
2026-05-05 18:33 28.66981 -15.70602 16001 ft 251 kts 258°
2026-05-05 18:33 28.66529 -15.72526 16000 ft 251 kts 258°
2026-05-05 18:34 28.66083 -15.74445 16000 ft 251 kts 258°
2026-05-05 18:34 28.65627 -15.76368 16001 ft 251 kts 258°
2026-05-05 18:34 28.65178 -15.78266 16001 ft 251 kts 258°
2026-05-05 18:34 28.64724 -15.80207 16000 ft 251 kts 258°
2026-05-05 18:35 28.64281 -15.82101 16000 ft 251 kts 258°
2026-05-05 18:35 28.63820 -15.84024 16001 ft 251 kts 258°
2026-05-05 18:35 28.63367 -15.85943 16000 ft 251 kts 258°
2026-05-05 18:35 28.62916 -15.87873 16000 ft 251 kts 258°
2026-05-05 18:36 28.62465 -15.89788 16000 ft 251 kts 258°
2026-05-05 18:36 28.62003 -15.91708 16001 ft 251 kts 258°
2026-05-05 18:36 28.61556 -15.93604 16000 ft 251 kts 258°
2026-05-05 18:36 28.61107 -15.95521 16000 ft 251 kts 258°
2026-05-05 18:37 28.60654 -15.97442 16000 ft 251 kts 258°
2026-05-05 18:37 28.60196 -15.99332 16001 ft 251 kts 258°
2026-05-05 18:37 28.59742 -16.01251 16000 ft 251 kts 258°
2026-05-05 18:37 28.59292 -16.03166 16000 ft 251 kts 258°
2026-05-05 18:38 28.58841 -16.05085 16000 ft 251 kts 258°